Adana/Sakirpasa, Turkey

2:15 PM +03 on January 19, 2017 (GMT +0300)
Adana

Weather History for LTAF - October, 2013

Change the Weather History Date:

Friday, October 4, 2013

  Actual Average Record
Temperature  
Mean Temperature 66 °F -  
Max Temperature 75 °F 80 °F 93 °F (2000)
Min Temperature 57 °F 58 °F 46 °F (1996)
Cooling Degree Days 1    
Growing Degree Days 16 (Base 50)    
Moisture  
Dew Point 34 °F    
Average Humidity 33    
Maximum Humidity 59    
Minimum Humidity 21    
Precipitation  
Precipitation 0.00 in 0.07 in - ()
Sea Level Pressure  
Sea Level Pressure 29.90 in    
Wind  
Wind Speed 9 mph ()    
Max Wind Speed 21 mph    
Max Gust Speed -    
Visibility 6.2 miles    
Events      
Averages and records for this station are not official NWS values.
T = Trace of Precipitation, MM = Missing Value Source: Averaged Metar Reports

Daily Weather History Graph

Daily Weather History Graph

Search for Another Location

Airport or City:

Trip Planner

Search our weather history database for the weather conditions in past years. The results will help you decide how hot, cold, wet, or windy it might be!

Date:

Astronomy

Oct. 04, 2013 Rise Set
Actual Time 6:36 AM EEST 6:17 PM EEST
Civil Twilight 6:10 AM EEST 6:43 PM EEST
Nautical Twilight 5:40 AM EEST 7:13 PM EEST
Astronomical Twilight 5:10 AM EEST 7:43 PM EEST
Moon 5:50 AM EEST (10/4) 5:48 PM EEST (10/4)
Length of Visible Light 12h 33m
Length of Day
11h 41m
Waning Crescent, 1% of the Moon is Illuminated
Oct 4
Waning Crescent
Oct 5
New
Oct 12
First Quarter
Oct 19
Full
Oct 27
Last Quarter

Hourly Weather History & Observations

Time (EEST) Temp. Dew Point Humidity Pressure Visibility Wind Dir Wind Speed Gust Speed Precip Events Conditions
12:20 AM 62.6 °F 48.2 °F 59% 29.83 in 6.2 mi NE 6.9 mph - N/A   Partly Cloudy
12:50 AM 62.6 °F 46.4 °F 55% 29.83 in 6.2 mi NNE 8.1 mph - N/A   Partly Cloudy
1:20 AM 68.0 °F 35.6 °F 30% 29.83 in 6.2 mi North 13.8 mph - N/A   Partly Cloudy
1:50 AM 62.6 °F 44.6 °F 52% 29.83 in 6.2 mi ENE 4.6 mph - N/A   Partly Cloudy
2:20 AM 60.8 °F 44.6 °F 55% 29.83 in 6.2 mi NE 5.8 mph - N/A   Partly Cloudy
2:50 AM 59.0 °F 44.6 °F 59% 29.83 in 6.2 mi East 4.6 mph - N/A   Partly Cloudy
3:20 AM 60.8 °F 39.2 °F 45% 29.83 in 6.2 mi ENE 4.6 mph - N/A   Partly Cloudy
3:50 AM 60.8 °F 37.4 °F 42% 29.86 in 6.2 mi ENE 4.6 mph - N/A   Partly Cloudy
4:20 AM 60.8 °F 39.2 °F 45% 29.86 in 6.2 mi ENE 5.8 mph - N/A   Partly Cloudy
4:50 AM 59.0 °F 39.2 °F 48% 29.86 in 6.2 mi ENE 6.9 mph - N/A   Partly Cloudy
5:20 AM 60.8 °F 39.2 °F 45% 29.86 in 6.2 mi ENE 6.9 mph - N/A   Partly Cloudy
5:50 AM 59.0 °F 41.0 °F 51% 29.86 in 6.2 mi ENE 6.9 mph - N/A   Partly Cloudy
6:20 AM 57.2 °F 39.2 °F 51% 29.86 in 6.2 mi ENE 5.8 mph - N/A   Partly Cloudy
7:20 AM 60.8 °F 39.2 °F 45% 29.89 in 6.2 mi NNE 6.9 mph - N/A   Partly Cloudy
7:50 AM 62.6 °F 39.2 °F 42% 29.89 in 6.2 mi NE 6.9 mph - N/A   Partly Cloudy
8:20 AM 66.2 °F 35.6 °F 32% 29.89 in 6.2 mi NNE 10.4 mph - N/A   Partly Cloudy
8:50 AM 66.2 °F 35.6 °F 32% 29.89 in 6.2 mi NNE 13.8 mph - N/A   Partly Cloudy
9:20 AM 68.0 °F 35.6 °F 30% 29.92 in 6.2 mi NNE 13.8 mph - N/A   Partly Cloudy
9:50 AM 69.8 °F 35.6 °F 28% 29.92 in 6.2 mi NNE 13.8 mph - N/A   Partly Cloudy
10:20 AM 69.8 °F 33.8 °F 27% 29.92 in 6.2 mi NNE 13.8 mph - N/A   Partly Cloudy
10:50 AM 71.6 °F 35.6 °F 27% 29.92 in 6.2 mi NNE 13.8 mph - N/A   Partly Cloudy
11:20 AM 73.4 °F 33.8 °F 23% 29.92 in 6.2 mi NNE 13.8 mph - N/A   Partly Cloudy
11:50 AM 73.4 °F 33.8 °F 23% 29.92 in 6.2 mi NNE 12.7 mph - N/A   Partly Cloudy
12:20 PM 73.4 °F 35.6 °F 25% 29.92 in 6.2 mi North 10.4 mph - N/A   Partly Cloudy
12:50 PM 73.4 °F 33.8 °F 23% 29.92 in 6.2 mi North 9.2 mph - N/A   Partly Cloudy
1:20 PM 75.2 °F 35.6 °F 24% 29.89 in 6.2 mi Variable 5.8 mph - N/A   Partly Cloudy
1:50 PM 73.4 °F 33.8 °F 23% 29.89 in 6.2 mi North 15.0 mph - N/A   Scattered Clouds
2:20 PM 73.4 °F 33.8 °F 23% 29.89 in 6.2 mi NNW 17.3 mph - N/A   Scattered Clouds
2:50 PM 71.6 °F 32.0 °F 23% 29.89 in 6.2 mi North 15.0 mph - N/A   Scattered Clouds
3:20 PM 71.6 °F 32.0 °F 23% 29.89 in 6.2 mi NNW 20.7 mph - N/A   Scattered Clouds
3:50 PM 69.8 °F 32.0 °F 25% 29.89 in 6.2 mi NNW 17.3 mph - N/A   Scattered Clouds
4:20 PM 69.8 °F 32.0 °F 25% 29.89 in 6.2 mi NNW 15.0 mph - N/A   Scattered Clouds
4:50 PM 68.0 °F 30.2 °F 24% 29.92 in 6.2 mi North 16.1 mph - N/A   Scattered Clouds
5:20 PM 66.2 °F 30.2 °F 26% 29.92 in 6.2 mi North 15.0 mph - N/A   Scattered Clouds
5:50 PM 66.2 °F 30.2 °F 26% 29.92 in 6.2 mi North 12.7 mph - N/A   Scattered Clouds
6:20 PM 66.2 °F 32.0 °F 28% 29.92 in 6.2 mi North 10.4 mph - N/A   Scattered Clouds
6:50 PM 66.2 °F 26.6 °F 23% 29.92 in 6.2 mi North 15.0 mph - N/A   Scattered Clouds
7:20 PM 66.2 °F 24.8 °F 21% 29.95 in 6.2 mi North 13.8 mph - N/A   Scattered Clouds
7:50 PM 64.4 °F 24.8 °F 22% 29.95 in 6.2 mi NNW 11.5 mph - N/A   Scattered Clouds
8:20 PM 64.4 °F 26.6 °F 24% 29.95 in 6.2 mi NNW 11.5 mph - N/A   Scattered Clouds
8:50 PM 64.4 °F 26.6 °F 24% 29.98 in 6.2 mi NNW 11.5 mph - N/A   Scattered Clouds
9:20 PM 62.6 °F 26.6 °F 26% 29.98 in 6.2 mi North 9.2 mph - N/A   Partly Cloudy
9:50 PM 62.6 °F 26.6 °F 26% 29.98 in 6.2 mi North 10.4 mph - N/A   Scattered Clouds
10:20 PM 62.6 °F 26.6 °F 26% 29.98 in 6.2 mi North 9.2 mph - N/A   Partly Cloudy
10:50 PM 60.8 °F 26.6 °F 27% 29.98 in 6.2 mi North 6.9 mph - N/A   Partly Cloudy
11:20 PM 60.8 °F 28.4 °F 29% 29.98 in 6.2 mi North 9.2 mph - N/A   Scattered Clouds
11:50 PM 60.8 °F 28.4 °F 29% 29.98 in 6.2 mi North 6.9 mph - N/A   Scattered Clouds